AUA64R LOWW-LEMH

Flight info

Callsign AUA64R
Flight time 1h 55m
Altitude 30000
Route RUPET2C/29 RUPET DCT GRZ DCT RADLY/N0442F360 DCT RIFEN/N0441F350 DCT BETMU/N0439F370 DCT LUPOS DCT TORTU DCT SIQOZ DCT BALEN UT250 RIXOT
Aircraft A320/M-SDE3FGHIRWY/LB1

Departure

Time 2026-04-25 17:46
Airport Vienna International Airport (LOWW)

Arrival

Time 2026-04-25 19:41
Airport Menorca Airport (LEMH)
Time Latitude Longitude Altitude Speed Heading
2026-04-25 17:01 48.11933 16.56659 622 ft 0 kts 206°
2026-04-25 17:34 48.11937 16.56662 637 ft 4 kts 206°
2026-04-25 17:35 48.11962 16.56680 620 ft 4 kts 206°
2026-04-25 17:35 48.11986 16.56698 614 ft 4 kts 206°
2026-04-25 17:35 48.12010 16.56716 619 ft 4 kts 206°
2026-04-25 17:35 48.12014 16.56721 619 ft 4 kts 200°
2026-04-25 17:36 48.11992 16.56729 618 ft 4 kts 146°
2026-04-25 17:36 48.11981 16.56756 614 ft 1 kts 116°
2026-04-25 17:40 48.11972 16.56784 614 ft 5 kts 116°
2026-04-25 17:40 48.11957 16.56829 615 ft 4 kts 116°
2026-04-25 17:40 48.11944 16.56870 612 ft 7 kts 116°
2026-04-25 17:40 48.11922 16.56937 607 ft 6 kts 116°
2026-04-25 17:41 48.11904 16.56990 607 ft 5 kts 116°
2026-04-25 17:41 48.11882 16.57059 617 ft 10 kts 116°
2026-04-25 17:41 48.11856 16.57141 612 ft 8 kts 110°
2026-04-25 17:41 48.11853 16.57200 607 ft 11 kts 95°
2026-04-25 17:42 48.11816 16.57323 612 ft 13 kts 128°
2026-04-25 17:42 48.11741 16.57374 614 ft 11 kts 165°
2026-04-25 17:42 48.11673 16.57402 618 ft 9 kts 163°
2026-04-25 17:42 48.11615 16.57427 618 ft 8 kts 164°
2026-04-25 17:43 48.11561 16.57450 614 ft 12 kts 164°
2026-04-25 17:43 48.11462 16.57438 607 ft 15 kts 204°
2026-04-25 17:43 48.11367 16.57369 607 ft 14 kts 205°
2026-04-25 17:43 48.11280 16.57308 616 ft 14 kts 206°
2026-04-25 17:44 48.11195 16.57246 607 ft 12 kts 206°
2026-04-25 17:44 48.11120 16.57191 612 ft 12 kts 206°
2026-04-25 17:44 48.11058 16.57128 621 ft 10 kts 249°
2026-04-25 17:44 48.11074 16.57043 616 ft 8 kts 295°
2026-04-25 17:45 48.11137 16.56852 612 ft 48 kts 296°
2026-04-25 17:45 48.11198 16.56663 609 ft 71 kts 296°
2026-04-25 17:45 48.11796 16.54826 620 ft 160 kts 296°
2026-04-25 17:45 48.12242 16.53283 1130 ft 160 kts 276°
2026-04-25 17:46 48.11891 16.51769 1790 ft 164 kts 228°
2026-04-25 17:46 48.10915 16.50680 2161 ft 185 kts 222°
2026-04-25 17:46 48.09833 16.49498 2505 ft 200 kts 221°
2026-04-25 17:46 48.08660 16.48210 2851 ft 218 kts 220°
2026-04-25 17:47 48.07378 16.46756 3109 ft 245 kts 222°
2026-04-25 17:47 48.06018 16.45061 3577 ft 263 kts 224°
2026-04-25 17:47 48.04627 16.43236 4319 ft 268 kts 224°
2026-04-25 17:47 48.03225 16.41376 5215 ft 270 kts 224°
2026-04-25 17:48 48.00371 16.37661 6845 ft 276 kts 221°
2026-04-25 17:48 47.98850 16.35884 7649 ft 278 kts 220°
2026-04-25 17:48 47.97299 16.34142 8471 ft 280 kts 220°
2026-04-25 17:49 47.95728 16.32399 9284 ft 282 kts 220°
2026-04-25 17:49 47.94165 16.30603 10061 ft 284 kts 222°
2026-04-25 17:49 47.92585 16.28705 10434 ft 303 kts 223°
2026-04-25 17:49 47.90899 16.26635 10632 ft 323 kts 223°
2026-04-25 17:50 47.89144 16.24477 11188 ft 331 kts 223°
2026-04-25 17:50 47.87356 16.22289 11878 ft 334 kts 222°
2026-04-25 17:50 47.85545 16.20085 12566 ft 337 kts 222°
2026-04-25 17:50 47.83744 16.17903 13255 ft 340 kts 222°
2026-04-25 17:51 47.81896 16.15671 13921 ft 344 kts 222°
2026-04-25 17:51 47.80029 16.13419 14518 ft 347 kts 223°
2026-04-25 17:51 47.78151 16.11151 15106 ft 350 kts 223°
2026-04-25 17:51 47.76257 16.08859 15697 ft 353 kts 223°
2026-04-25 17:52 47.74349 16.06549 16278 ft 356 kts 223°
2026-04-25 17:52 47.73071 16.05006 16669 ft 358 kts 223°
2026-04-25 17:52 47.70469 16.01874 17443 ft 362 kts 223°
2026-04-25 17:52 47.68506 15.99514 17999 ft 365 kts 223°
2026-04-25 17:53 47.66523 15.97129 18542 ft 368 kts 223°
2026-04-25 17:53 47.64522 15.94728 19038 ft 371 kts 223°
2026-04-25 17:53 47.62508 15.92319 19525 ft 373 kts 223°
2026-04-25 17:53 47.60480 15.89896 20026 ft 376 kts 223°
2026-04-25 17:54 47.58442 15.87458 20593 ft 377 kts 223°
2026-04-25 17:54 47.56392 15.85011 21129 ft 379 kts 223°
2026-04-25 17:54 47.54334 15.82556 21640 ft 381 kts 222°
2026-04-25 17:54 47.52262 15.80085 22163 ft 384 kts 222°
2026-04-25 17:55 47.50180 15.77604 22683 ft 386 kts 222°
2026-04-25 17:55 47.48081 15.75115 23206 ft 388 kts 220°
2026-04-25 17:55 47.45789 15.72962 23672 ft 394 kts 210°
2026-04-25 17:55 47.43243 15.71377 23929 ft 398 kts 205°
2026-04-25 17:56 47.40647 15.69928 24211 ft 400 kts 204°
2026-04-25 17:56 47.38037 15.68478 24605 ft 401 kts 204°
2026-04-25 17:56 47.35417 15.67025 24967 ft 403 kts 205°
2026-04-25 17:56 47.32817 15.65581 25299 ft 406 kts 205°
2026-04-25 17:57 47.30171 15.64108 25650 ft 407 kts 205°
2026-04-25 17:57 47.27518 15.62627 26009 ft 409 kts 205°
2026-04-25 17:57 47.24849 15.61135 26353 ft 411 kts 205°
2026-04-25 17:57 47.23945 15.60631 26479 ft 412 kts 205°
2026-04-25 17:58 47.19478 15.58150 27041 ft 414 kts 205°
2026-04-25 17:58 47.16774 15.56651 27372 ft 416 kts 205°
2026-04-25 17:58 47.14941 15.55637 27557 ft 418 kts 205°
2026-04-25 17:58 47.11325 15.53641 27981 ft 420 kts 205°
2026-04-25 17:59 47.09475 15.52619 28207 ft 422 kts 205°
2026-04-25 17:59 47.06761 15.51121 28520 ft 423 kts 205°
2026-04-25 17:59 47.03998 15.49601 28826 ft 425 kts 205°
2026-04-25 17:59 47.01225 15.48077 29131 ft 426 kts 205°
2026-04-25 18:00 46.98444 15.46549 29425 ft 428 kts 205°
2026-04-25 18:00 46.95666 15.44971 29692 ft 427 kts 209°
2026-04-25 18:00 46.93032 15.42986 29948 ft 426 kts 213°
2026-04-25 18:00 46.90415 15.40927 30190 ft 428 kts 213°
2026-04-25 18:01 46.87786 15.38867 30421 ft 429 kts 212°
2026-04-25 18:01 46.85146 15.36803 30632 ft 431 kts 212°
2026-04-25 18:01 46.82498 15.34741 30839 ft 432 kts 212°
2026-04-25 18:01 46.79850 15.32682 31137 ft 431 kts 213°
2026-04-25 18:02 46.77205 15.30628 31437 ft 430 kts 213°
2026-04-25 18:02 46.74567 15.28580 31716 ft 429 kts 213°
2026-04-25 18:02 46.71932 15.26538 32008 ft 429 kts 213°
2026-04-25 18:02 46.69299 15.24498 32294 ft 428 kts 213°
2026-04-25 18:03 46.66736 15.22325 32585 ft 423 kts 219°
2026-04-25 18:03 46.64473 15.19637 32867 ft 418 kts 229°
2026-04-25 18:03 46.62572 15.16485 33134 ft 413 kts 237°
2026-04-25 18:03 46.60939 15.13065 33402 ft 411 kts 239°
2026-04-25 18:04 46.59317 15.09656 33742 ft 409 kts 238°
2026-04-25 18:04 46.57693 15.06267 34015 ft 408 kts 238°
2026-04-25 18:04 46.56069 15.02893 34291 ft 407 kts 238°
2026-04-25 18:04 46.54444 14.99524 34527 ft 407 kts 238°
2026-04-25 18:05 46.52821 14.96165 34761 ft 406 kts 238°
2026-04-25 18:05 46.51201 14.92814 34980 ft 405 kts 238°
2026-04-25 18:05 46.49584 14.89466 35186 ft 405 kts 238°
2026-04-25 18:05 46.47965 14.86116 35382 ft 405 kts 238°
2026-04-25 18:06 46.46373 14.82823 35560 ft 404 kts 238°
2026-04-25 18:06 46.44757 14.79488 35709 ft 404 kts 238°
2026-04-25 18:06 46.43143 14.76159 35880 ft 404 kts 238°
2026-04-25 18:06 46.41526 14.72823 36034 ft 404 kts 238°
2026-04-25 18:07 46.39910 14.69490 36218 ft 404 kts 238°
2026-04-25 18:07 46.38293 14.66163 36362 ft 403 kts 238°
2026-04-25 18:07 46.36681 14.62856 36575 ft 403 kts 238°
2026-04-25 18:07 46.35063 14.59539 36709 ft 403 kts 238°
2026-04-25 18:08 46.33446 14.56226 36869 ft 403 kts 238°
2026-04-25 18:08 46.31829 14.52914 36985 ft 404 kts 238°
2026-04-25 18:08 46.30206 14.49598 37001 ft 404 kts 237°
2026-04-25 18:09 46.26963 14.42984 36999 ft 403 kts 237°
2026-04-25 18:09 46.23719 14.36373 37002 ft 403 kts 237°
2026-04-25 18:10 46.20468 14.29764 37003 ft 403 kts 237°
2026-04-25 18:10 46.17210 14.23171 37001 ft 403 kts 237°
2026-04-25 18:11 46.13949 14.16591 37003 ft 403 kts 237°
2026-04-25 18:11 46.10690 14.10020 37007 ft 403 kts 237°
2026-04-25 18:12 46.07426 14.03451 37009 ft 403 kts 237°
2026-04-25 18:12 46.04180 13.96937 37028 ft 403 kts 237°
2026-04-25 18:13 46.00909 13.90386 37028 ft 403 kts 237°
2026-04-25 18:13 45.97630 13.83845 37029 ft 403 kts 237°
2026-04-25 18:14 45.92706 13.74038 37036 ft 403 kts 237°
2026-04-25 18:14 45.89417 13.67506 37036 ft 403 kts 237°
2026-04-25 18:15 45.86124 13.60991 37040 ft 403 kts 237°
2026-04-25 18:15 45.83168 13.54198 37037 ft 401 kts 242°
2026-04-25 18:16 45.80369 13.47288 37036 ft 401 kts 242°
2026-04-25 18:17 45.76156 13.36938 37015 ft 401 kts 242°
2026-04-25 18:17 45.73340 13.30049 37015 ft 401 kts 242°
2026-04-25 18:18 45.70511 13.23172 37011 ft 401 kts 242°
2026-04-25 18:18 45.67685 13.16287 37007 ft 401 kts 242°
2026-04-25 18:19 45.64856 13.09406 37012 ft 401 kts 242°
2026-04-25 18:19 45.62035 13.02581 36991 ft 402 kts 242°
2026-04-25 18:20 45.59190 12.95711 36999 ft 402 kts 242°
2026-04-25 18:20 45.56335 12.88830 36999 ft 403 kts 242°
2026-04-25 18:21 45.53469 12.81951 36994 ft 403 kts 242°
2026-04-25 18:21 45.50602 12.75079 36995 ft 403 kts 242°
2026-04-25 18:22 45.47724 12.68207 36999 ft 404 kts 242°
2026-04-25 18:22 45.44852 12.61333 36980 ft 404 kts 242°
2026-04-25 18:23 45.41968 12.54464 36992 ft 404 kts 242°
2026-04-25 18:23 45.39076 12.47598 36999 ft 405 kts 242°
2026-04-25 18:24 45.36183 12.40722 36992 ft 406 kts 242°
2026-04-25 18:24 45.33274 12.33844 36995 ft 406 kts 242°
2026-04-25 18:25 45.30350 12.26966 36977 ft 407 kts 242°
2026-04-25 18:25 45.27420 12.20082 36989 ft 407 kts 242°
2026-04-25 18:26 45.24485 12.13197 37007 ft 408 kts 242°
2026-04-25 18:26 45.21547 12.06316 37027 ft 408 kts 241°
2026-04-25 18:27 45.18616 11.99484 37036 ft 409 kts 242°
2026-04-25 18:27 45.15657 11.92593 37025 ft 410 kts 242°
2026-04-25 18:28 45.12689 11.85697 37039 ft 410 kts 241°
2026-04-25 18:28 45.09717 11.78795 37054 ft 411 kts 241°
2026-04-25 18:29 45.05243 11.68456 37074 ft 411 kts 241°
2026-04-25 18:30 44.99259 11.54692 37074 ft 411 kts 241°
2026-04-25 18:30 44.96254 11.47825 37070 ft 411 kts 241°
2026-04-25 18:31 44.93247 11.40943 37081 ft 412 kts 241°
2026-04-25 18:31 44.90232 11.34055 37082 ft 413 kts 241°
2026-04-25 18:32 44.87211 11.27170 37088 ft 413 kts 240°
2026-04-25 18:32 44.84178 11.20294 37095 ft 413 kts 240°
2026-04-25 18:33 44.81147 11.13414 37099 ft 413 kts 240°
2026-04-25 18:33 44.78107 11.06546 37104 ft 413 kts 240°
2026-04-25 18:34 44.75083 10.99731 37118 ft 413 kts 240°
2026-04-25 18:34 44.72014 10.92833 37118 ft 413 kts 240°
2026-04-25 18:35 44.68975 10.86034 37130 ft 413 kts 240°
2026-04-25 18:35 44.65478 10.79625 37118 ft 417 kts 228°
2026-04-25 18:36 44.61418 10.73814 37141 ft 417 kts 228°
2026-04-25 18:36 44.57355 10.67994 37158 ft 417 kts 229°
2026-04-25 18:37 44.53300 10.62179 37161 ft 417 kts 228°
2026-04-25 18:37 44.49236 10.56367 37164 ft 417 kts 229°
2026-04-25 18:38 44.45250 10.50453 37165 ft 418 kts 230°
2026-04-25 18:38 44.41304 10.44476 37168 ft 418 kts 230°
2026-04-25 18:39 44.37343 10.38521 37168 ft 418 kts 229°
2026-04-25 18:39 44.33348 10.32604 37170 ft 419 kts 229°
2026-04-25 18:40 44.29346 10.26692 37137 ft 419 kts 229°
2026-04-25 18:40 44.25348 10.20776 37127 ft 419 kts 229°
2026-04-25 18:41 44.21347 10.14880 37110 ft 419 kts 229°
2026-04-25 18:41 44.17339 10.08981 37098 ft 419 kts 229°
2026-04-25 18:42 44.14680 10.05073 37088 ft 420 kts 229°
2026-04-25 18:42 44.09300 9.97187 37097 ft 420 kts 229°
2026-04-25 18:43 44.05303 9.91330 37099 ft 420 kts 229°
2026-04-25 18:43 44.01273 9.85443 37103 ft 420 kts 229°
2026-04-25 18:44 43.97236 9.79566 37090 ft 421 kts 228°
2026-04-25 18:44 43.93193 9.73686 37095 ft 421 kts 228°
2026-04-25 18:45 43.89141 9.67807 37096 ft 422 kts 228°
2026-04-25 18:45 43.85075 9.61925 37104 ft 422 kts 228°
2026-04-25 18:46 43.81011 9.56047 37105 ft 422 kts 228°
2026-04-25 18:46 43.76940 9.50176 37097 ft 423 kts 228°
2026-04-25 18:47 43.72860 9.44312 37099 ft 423 kts 228°
2026-04-25 18:47 43.68774 9.38442 37108 ft 424 kts 228°
2026-04-25 18:48 43.64681 9.32582 37104 ft 424 kts 228°
2026-04-25 18:48 43.61272 9.27711 37102 ft 424 kts 228°
2026-04-25 18:49 43.57174 9.21855 37098 ft 424 kts 228°
2026-04-25 18:49 43.53066 9.16000 37115 ft 425 kts 227°
2026-04-25 18:50 43.48949 9.10162 37110 ft 425 kts 227°
2026-04-25 18:50 43.44829 9.04320 37105 ft 425 kts 227°
2026-04-25 18:51 43.41397 8.99463 37101 ft 426 kts 227°
2026-04-25 18:51 43.36555 8.92645 37115 ft 427 kts 227°
2026-04-25 18:52 43.32371 8.86858 37116 ft 427 kts 226°
2026-04-25 18:52 43.28175 8.81097 37108 ft 427 kts 226°
2026-04-25 18:53 43.23972 8.75332 37109 ft 428 kts 226°
2026-04-25 18:53 43.19763 8.69562 37109 ft 428 kts 226°
2026-04-25 18:54 43.13472 8.60947 37119 ft 429 kts 226°
2026-04-25 18:55 43.09248 8.55179 37118 ft 429 kts 226°
2026-04-25 18:55 43.05026 8.49414 37119 ft 429 kts 226°
2026-04-25 18:56 43.00793 8.43651 37116 ft 429 kts 226°
2026-04-25 18:56 42.96565 8.37884 37119 ft 430 kts 227°
2026-04-25 18:57 42.92388 8.32052 37118 ft 429 kts 227°
2026-04-25 18:57 42.88227 8.26204 37122 ft 429 kts 227°
2026-04-25 18:58 42.84052 8.20388 37119 ft 429 kts 227°
2026-04-25 18:58 42.77801 8.11735 37117 ft 429 kts 226°
2026-04-25 18:59 42.69430 8.00168 37107 ft 429 kts 226°
2026-04-25 19:00 42.63133 7.91504 37114 ft 429 kts 226°
2026-04-25 19:01 42.56821 7.82871 37123 ft 429 kts 226°
2026-04-25 19:01 42.52615 7.77123 37123 ft 429 kts 226°
2026-04-25 19:02 42.46315 7.68495 37122 ft 430 kts 226°
2026-04-25 19:03 42.40704 7.60859 37130 ft 430 kts 226°
2026-04-25 19:03 42.35769 7.54172 37126 ft 429 kts 226°
2026-04-25 19:04 42.29444 7.45604 37123 ft 429 kts 226°
2026-04-25 19:05 42.20988 7.34197 37133 ft 430 kts 226°
2026-04-25 19:06 42.16784 7.28539 37128 ft 430 kts 226°
2026-04-25 19:06 42.10430 7.20012 37129 ft 430 kts 226°
2026-04-25 19:07 42.04066 7.11496 37130 ft 430 kts 226°
2026-04-25 19:08 41.97688 7.02999 37130 ft 430 kts 225°
2026-04-25 19:09 41.89889 6.92634 37125 ft 431 kts 226°
2026-04-25 19:10 41.82789 6.83231 37132 ft 432 kts 225°
2026-04-25 19:10 41.78508 6.77587 37137 ft 431 kts 225°
2026-04-25 19:11 41.74230 6.71948 37141 ft 432 kts 226°
2026-04-25 19:11 41.69948 6.66309 37140 ft 432 kts 225°
2026-04-25 19:12 41.65663 6.60682 37149 ft 432 kts 225°
2026-04-25 19:12 41.61371 6.55055 37149 ft 432 kts 226°
2026-04-25 19:13 41.57080 6.49435 37142 ft 432 kts 225°
2026-04-25 19:13 41.52783 6.43820 37139 ft 432 kts 226°
2026-04-25 19:14 41.48480 6.38208 37142 ft 433 kts 225°
2026-04-25 19:14 41.44186 6.32579 37143 ft 432 kts 230°
2026-04-25 19:15 41.40306 6.26466 37152 ft 432 kts 232°
2026-04-25 19:15 41.36509 6.20261 37148 ft 432 kts 232°
2026-04-25 19:16 41.32713 6.14057 37152 ft 432 kts 231°
2026-04-25 19:16 41.30800 6.10967 36975 ft 433 kts 232°
2026-04-25 19:16 41.28887 6.07891 36569 ft 430 kts 231°
2026-04-25 19:16 41.26991 6.04843 36069 ft 426 kts 231°
2026-04-25 19:17 41.25106 6.01822 35568 ft 423 kts 231°
2026-04-25 19:17 41.23264 5.98864 35077 ft 420 kts 232°
2026-04-25 19:17 41.21406 5.95877 34562 ft 419 kts 232°
2026-04-25 19:17 41.19545 5.92887 33903 ft 420 kts 231°
2026-04-25 19:18 41.17687 5.89912 33401 ft 417 kts 231°
2026-04-25 19:18 41.15839 5.86961 32908 ft 414 kts 231°
2026-04-25 19:18 41.14007 5.84035 32410 ft 411 kts 231°
2026-04-25 19:18 41.12185 5.81125 31928 ft 409 kts 231°
2026-04-25 19:19 41.10373 5.78232 31448 ft 407 kts 231°
2026-04-25 19:19 41.08564 5.75349 30974 ft 405 kts 231°
2026-04-25 19:19 41.06764 5.72485 30502 ft 404 kts 231°
2026-04-25 19:19 41.05575 5.70595 30184 ft 403 kts 231°
2026-04-25 19:20 41.03187 5.66798 29544 ft 399 kts 231°
2026-04-25 19:20 41.01417 5.63987 29108 ft 395 kts 231°
2026-04-25 19:20 40.99661 5.61203 28673 ft 392 kts 231°
2026-04-25 19:20 40.97917 5.58451 28247 ft 389 kts 231°
2026-04-25 19:21 40.96185 5.55720 27820 ft 386 kts 231°
2026-04-25 19:21 40.92761 5.50325 26977 ft 380 kts 231°
2026-04-25 19:21 40.91066 5.47658 26547 ft 378 kts 231°
2026-04-25 19:22 40.89382 5.45003 26111 ft 376 kts 231°
2026-04-25 19:22 40.87708 5.42367 25681 ft 374 kts 231°
2026-04-25 19:22 40.84369 5.37134 24784 ft 372 kts 231°
2026-04-25 19:23 40.82702 5.34526 24335 ft 371 kts 231°
2026-04-25 19:23 40.79377 5.29319 23362 ft 371 kts 231°
2026-04-25 19:23 40.77741 5.26760 22908 ft 369 kts 231°
2026-04-25 19:24 40.76091 5.24182 22457 ft 367 kts 231°
2026-04-25 19:24 40.74449 5.21623 22002 ft 365 kts 231°
2026-04-25 19:24 40.71178 5.16532 21131 ft 362 kts 231°
2026-04-25 19:25 40.67939 5.11480 20259 ft 360 kts 231°
2026-04-25 19:25 40.66323 5.08967 19834 ft 359 kts 231°
2026-04-25 19:25 40.64713 5.06464 19404 ft 358 kts 231°
2026-04-25 19:26 40.63113 5.03983 19163 ft 352 kts 231°
2026-04-25 19:26 40.61543 5.01550 19144 ft 348 kts 231°
2026-04-25 19:26 40.59977 4.99126 19151 ft 347 kts 231°
2026-04-25 19:26 40.58412 4.96705 19152 ft 347 kts 231°
2026-04-25 19:27 40.56849 4.94288 19147 ft 346 kts 230°
2026-04-25 19:27 40.56322 4.93475 19149 ft 346 kts 230°
2026-04-25 19:27 40.53726 4.89469 18584 ft 352 kts 230°
2026-04-25 19:27 40.52118 4.86987 17881 ft 359 kts 230°
2026-04-25 19:28 40.50496 4.84487 17365 ft 359 kts 230°
2026-04-25 19:28 40.48877 4.81993 16907 ft 358 kts 230°
2026-04-25 19:28 40.47262 4.79508 16473 ft 357 kts 230°
2026-04-25 19:28 40.45663 4.77048 15852 ft 352 kts 230°
2026-04-25 19:29 40.44077 4.74608 15089 ft 350 kts 230°
2026-04-25 19:29 40.42518 4.72168 14354 ft 348 kts 231°
2026-04-25 19:29 40.40987 4.69725 13600 ft 346 kts 231°
2026-04-25 19:29 40.39468 4.67360 12882 ft 340 kts 225°
2026-04-25 19:30 40.37667 4.65444 12456 ft 326 kts 213°
2026-04-25 19:30 40.35812 4.63841 12080 ft 313 kts 212°
2026-04-25 19:30 40.33867 4.62639 11708 ft 308 kts 193°
2026-04-25 19:30 40.31759 4.62097 11342 ft 309 kts 188°
2026-04-25 19:31 40.29644 4.61660 10977 ft 307 kts 188°
2026-04-25 19:31 40.27536 4.61239 10610 ft 305 kts 187°
2026-04-25 19:31 40.25440 4.60828 10255 ft 304 kts 187°
2026-04-25 19:31 40.23356 4.60422 9887 ft 302 kts 187°
2026-04-25 19:32 40.21281 4.60023 9493 ft 300 kts 187°
2026-04-25 19:32 40.19219 4.59628 9110 ft 298 kts 187°
2026-04-25 19:32 40.17171 4.59235 8723 ft 297 kts 187°
2026-04-25 19:32 40.16481 4.59102 8591 ft 296 kts 187°
2026-04-25 19:33 40.13160 4.58205 7953 ft 293 kts 204°
2026-04-25 19:33 40.11499 4.56701 7560 ft 291 kts 227°
2026-04-25 19:33 40.10411 4.54504 7168 ft 288 kts 250°
2026-04-25 19:33 40.10013 4.51964 6786 ft 285 kts 265°
2026-04-25 19:34 40.09837 4.49391 6376 ft 284 kts 266°
2026-04-25 19:34 40.09665 4.46832 5975 ft 282 kts 265°
2026-04-25 19:34 40.09493 4.44293 5579 ft 280 kts 265°
2026-04-25 19:34 40.09318 4.41769 5182 ft 278 kts 265°
2026-04-25 19:35 40.09143 4.39258 4789 ft 276 kts 264°
2026-04-25 19:35 40.08911 4.36772 4327 ft 275 kts 261°
2026-04-25 19:35 40.08621 4.34343 3889 ft 264 kts 259°
2026-04-25 19:35 40.08326 4.32069 3546 ft 251 kts 259°
2026-04-25 19:36 40.07987 4.29905 3223 ft 236 kts 250°
2026-04-25 19:36 40.07260 4.28073 3020 ft 218 kts 231°
2026-04-25 19:36 40.06225 4.26735 3029 ft 204 kts 214°
2026-04-25 19:36 40.05026 4.25879 3027 ft 192 kts 199°
2026-04-25 19:37 40.03751 4.25469 3068 ft 187 kts 188°
2026-04-25 19:37 40.02468 4.25205 3034 ft 186 kts 188°
2026-04-25 19:37 40.01188 4.24943 2987 ft 187 kts 188°
2026-04-25 19:37 39.99907 4.24678 2820 ft 186 kts 188°
2026-04-25 19:38 39.98633 4.24416 2592 ft 184 kts 188°
2026-04-25 19:38 39.97403 4.24162 2354 ft 173 kts 189°
2026-04-25 19:38 39.96240 4.23922 2153 ft 166 kts 189°
2026-04-25 19:38 39.95108 4.23688 1927 ft 164 kts 188°
2026-04-25 19:39 39.94015 4.23460 1711 ft 152 kts 188°
2026-04-25 19:39 39.92999 4.23252 1475 ft 145 kts 188°
2026-04-25 19:39 39.92016 4.23055 1268 ft 141 kts 187°
2026-04-25 19:39 39.91050 4.22851 1085 ft 141 kts 188°
2026-04-25 19:40 39.90087 4.22653 914 ft 140 kts 188°
2026-04-25 19:40 39.89456 4.22529 783 ft 139 kts 188°
2026-04-25 19:40 39.88504 4.22328 608 ft 138 kts 188°
2026-04-25 19:40 39.87553 4.22132 418 ft 138 kts 187°
2026-04-25 19:41 39.86624 4.21941 304 ft 128 kts 187°
2026-04-25 19:41 39.85934 4.21800 299 ft 60 kts 189°
2026-04-25 19:41 39.85663 4.21758 298 ft 31 kts 177°
2026-04-25 19:41 39.85541 4.21781 296 ft 23 kts 163°
2026-04-25 19:42 39.85406 4.21874 292 ft 13 kts 125°
2026-04-25 19:42 39.85450 4.21938 292 ft 11 kts
2026-04-25 19:42 39.85515 4.21950 292 ft 10 kts
2026-04-25 19:42 39.85607 4.21969 294 ft 18 kts
2026-04-25 19:43 39.85752 4.22000 297 ft 23 kts
2026-04-25 19:43 39.85916 4.22033 297 ft 24 kts
2026-04-25 19:43 39.86063 4.22063 299 ft 16 kts
2026-04-25 19:43 39.86158 4.22084 295 ft 13 kts 14°
2026-04-25 19:44 39.86188 4.22166 295 ft 11 kts 99°
2026-04-25 19:44 39.86199 4.22253 298 ft 9 kts 40°
2026-04-25 19:44 39.86258 4.22274 295 ft 9 kts
2026-04-25 19:44 39.86330 4.22289 295 ft 10 kts
2026-04-25 19:45 39.86395 4.22302 295 ft 9 kts
2026-04-25 19:45 39.86450 4.22314 296 ft 7 kts
2026-04-25 19:45 39.86471 4.22344 296 ft 4 kts 87°
2026-04-25 19:45 39.86467 4.22376 299 ft 3 kts 99°
2026-04-25 19:46 39.86465 4.22396 297 ft 1 kts 99°
2026-04-25 19:46 39.86464 4.22402 296 ft 0 kts 99°
2026-04-25 19:46 39.86464 4.22403 298 ft 0 kts 99°